Location: Unspecified
(0.0000°N, 0.0000°E)
Time: 10:57:57
(UTC+00:00)

AO-73 - Pass Details

Date: 25 October 2019
Orbit: 583 x 662 km, 97.6° (Epoch: 17 November)

Event Time Altitude Azimuth Distance (km) Brightness Sun altitude
Rises 19:10:52 0° 208° (SSW) 2,806 ? -21.2°
Reaches altitude 10° 19:15:12 10° 252° (WSW) 1,912 ? -22.2°
Maximum altitude 19:15:40 10° 259° (WSW) 1,903 ? -22.3°
Drops below altitude 10° 19:16:08 10° 265° (W) 1,914 ? -22.5°
Sets 19:20:31 0° 309° (NW) 2,829 ? -23.5°
